Location: Most
(50.5133°N, 13.6207°E)
Time: 05:17:42
(UTC+01:00)

ZACube-1 - Pass Details

Date: 05 December 2021
Orbit: 583 x 664 km, 97.6° (Epoch: 19 January)

Event Time Altitude Azimuth Distance (km) Brightness Sun altitude
Rises 16:49:37 0° 213° (SSW) 2,863 ? -7.2°
Reaches altitude 10° 16:52:36 10° 236° (SW) 1,983 ? -7.7°
Maximum altitude 16:55:09 15° 273° (W) 1,679 ? -8.0°
Drops below altitude 10° 16:57:45 10° 309° (NW) 2,023 ? -8.4°
Sets 17:00:52 0° 332° (NNW) 2,957 ? -8.9°
